Torna al catalogo

SL-14 DEB

AttivoPO
NORAD 25205·DEBRIS·🇷🇺 Russia

Lanciato Aug 18, 1987 da Plesetsk Cosmodrome

Loading…

Prossimi Passaggi (prossime 24 ore)

TLE

AggiornatoSource: Space-Track

Epoca: Sep 14, 2026, 09:18 UTC

1 25205U 87068AG  26257.38803507  .00000346  00000-0  24757-3 0  9990
2 25205  82.5364 126.9051 0013053 252.8010 231.0332 13.94558328449254

Traccia SL-14 DEB in tempo reale con AllMySat

Download on the App Store